FW6635 Weather Reports


Display with metric or nautical units.
time (UTC)temp
F
wind
direction
speed
MPH
gust
MPH
rain 1hr
in
rain 24hr
in
rain mn
in
humidity
%
barometer
mb
20260505173059 80 167 5.0 13.0 0.00 0.00 0.00 44 1018.2
20260505171618 79 209 4.0 10.0 0.00 0.00 0.00 47 1018.2
20260505170053 79 173 3.0 10.0 0.00 0.00 0.00 46 1018.3
20260505164546 79 172 5.0 12.0 0.00 0.00 0.00 45 1018.6
20260505163045 78 214 3.0 8.0 0.00 0.00 0.00 51 1018.9
20260505161553 78 208 3.0 9.0 0.00 0.00 0.00 53 1018.8
20260505153051 75 245 3.0 8.0 0.00 0.00 0.00 59 1019.4
20260505151553 75 257 2.0 10.0 0.00 0.00 0.00 61 1019.5
20260505150110 75 208 5.0 10.0 0.00 0.00 0.00 63 1019.5
20260505124557 62 189 2.0 7.0 0.00 0.00 0.00 82 1019.2
20260505123100 61 199 1.0 4.0 0.00 0.00 0.00 87 1019.0
20260505121619 59 265 0.0 2.0 0.00 0.00 0.00 92 1018.9
20260505120047 56 0 0.0 0.0 0.00 0.00 0.00 97 1018.7
20260505114551 54 0 0.0 0.0 0.00 0.00 0.00 97 1018.8
20260505113048 51 0 0.0 0.0 0.00 0.00 0.00 96 1018.7
20260505111548 49 0 0.0 0.0 0.00 0.00 0.00 96 1018.6
20260505101546 48 0 0.0 0.0 0.00 0.00 0.00 96 1018.2
20260505100123 48 0 0.0 0.0 0.00 0.00 0.00 95 1018.1
20260505094550 49 0 0.0 0.0 0.00 0.00 0.00 95 1018.1
20260505093052 49 0 0.0 0.0 0.00 0.00 0.00 95 1018.1
20260505091616 49 0 0.0 0.0 0.00 0.00 0.00 95 1018.1
20260505090100 49 0 0.0 0.0 0.00 0.00 0.00 95 1017.9
20260505084549 49 0 0.0 0.0 0.00 0.00 0.00 95 1017.7
20260505083054 50 0 0.0 0.0 0.00 0.00 0.00 95 1017.7
20260505081550 50 0 0.0 0.0 0.00 0.00 0.00 94 1017.7
20260505080055 50 0 0.0 0.0 0.00 0.00 0.00 94 1017.6
20260505074549 50 0 0.0 0.0 0.00 0.00 0.00 94 1017.6
20260505073057 50 0 0.0 0.0 0.00 0.00 0.00 93 1017.5
20260505071549 51 0 0.0 0.0 0.00 0.00 0.00 93 1017.6
20260505070059 51 0 0.0 0.0 0.00 0.00 0.00 92 1017.5
20260505064555 51 0 0.0 0.0 0.00 0.00 0.00 91 1017.6
20260505063052 52 0 0.0 0.0 0.00 0.00 0.00 90 1017.7
20260505061554 53 0 0.0 0.0 0.00 0.00 0.00 88 1017.7
20260505060052 53 0 0.0 0.0 0.00 0.00 0.00 87 1017.9
20260505054617 54 0 0.0 0.0 0.00 0.00 0.00 86 1018.0
20260505053056 55 0 0.0 0.0 0.00 0.00 0.00 84 1018.0
20260505051547 55 0 0.0 0.0 0.00 0.00 0.00 81 1018.1
20260505041600 59 0 0.0 0.0 0.00 0.00 0.00 73 1018.5
20260505034551 60 0 0.0 0.0 0.00 0.00 0.00 71 1018.6
20260505033053 61 0 0.0 1.0 0.00 0.00 0.00 70 1018.7
20260505031550 61 0 0.0 1.0 0.00 0.00 0.00 69 1018.8
20260505030101 62 154 0.0 3.0 0.00 0.00 0.00 68 1018.7
20260505024556 62 153 1.0 5.0 0.00 0.00 0.00 66 1018.5
20260505023053 63 158 0.0 4.0 0.00 0.00 0.00 65 1018.5
20260505021558 64 154 2.0 5.0 0.00 0.00 0.00 65 1018.4
20260505020058 65 0 1.0 5.0 0.00 0.00 0.00 63 1018.3
20260505014556 65 166 3.0 6.0 0.00 0.00 0.00 63 1018.1
20260505013050 66 172 2.0 6.0 0.00 0.00 0.00 62 1017.9
20260505011551 67 0 3.0 10.0 0.00 0.00 0.00 61 1017.7
20260505010114 67 195 2.0 7.0 0.00 0.00 0.00 60 1017.6
20260505004552 68 158 1.0 6.0 0.00 0.00 0.00 59 1017.4
20260505003055 69 157 5.0 9.0 0.00 0.00 0.00 58 1017.2
20260505001550 69 169 3.0 8.0 0.00 0.00 0.00 58 1017.1
20260505000058 67 116 0.0 3.0 0.00 0.00 0.00 64 1016.8
20260504234551 68 0 0.0 0.0 0.00 0.00 0.00 60 1016.7
20260504233054 71 0 0.0 1.0 0.00 0.00 0.00 58 1016.5
20260504231546 74 0 0.0 3.0 0.00 0.00 0.00 49 1016.5
20260504230107 76 188 0.0 5.0 0.00 0.00 0.00 43 1016.6
20260504224601 75 205 1.0 4.0 0.00 0.00 0.00 43 1016.5
20260504223047 75 191 2.0 9.0 0.00 0.00 0.00 39 1016.7
20260504221549 77 213 3.0 10.0 0.00 0.00 0.00 37 1016.7
20260504220057 78 223 5.0 11.0 0.00 0.00 0.00 35 1016.5
20260504214548 78 205 4.0 8.0 0.00 0.00 0.00 35 1016.5
20260504213048 78 155 4.0 10.0 0.00 0.00 0.00 34 1016.5
20260504211546 78 197 6.0 12.0 0.00 0.00 0.00 33 1016.5
20260504210100 79 173 6.0 14.0 0.00 0.00 0.00 35 1016.7
20260504204550 79 201 4.0 10.0 0.00 0.00 0.00 34 1016.7
20260504203051 79 236 3.0 9.0 0.00 0.00 0.00 36 1016.8
20260504201551 79 193 3.0 12.0 0.00 0.00 0.00 36 1016.8
20260504200101 79 221 4.0 10.0 0.00 0.00 0.00 35 1017.0
20260504194554 79 217 2.0 10.0 0.00 0.00 0.00 34 1017.2
20260504193055 79 214 4.0 9.0 0.00 0.00 0.00 36 1017.3
20260504191605 79 220 4.0 10.0 0.00 0.00 0.00 34 1017.4
20260504190055 78 190 2.0 8.0 0.00 0.00 0.00 37 1017.7
20260504184552 79 240 2.0 11.0 0.00 0.00 0.00 35 1017.9
20260504183050 78 171 4.0 11.0 0.00 0.00 0.00 39 1018.2
20260504181601 77 167 3.0 13.0 0.00 0.00 0.00 37 1018.2
20260504180054 77 179 3.0 10.0 0.00 0.00 0.00 40 1018.5
20260504174555 77 265 1.0 6.0 0.00 0.00 0.00 37 1018.5